Find Starlink 35304

NORAD ID: 66249 Int'l Des: 2025-245 Owner: SPXS Country: US Constellation: starlink operational
LEOCIRCULAR

当前视图

正在加载3D地球...

关于 Starlink 35304

正在加载描述...

即将过境

Passes for default location (London). Set your location on the main map for personalized predictions.

高度历史

Loading altitude history...

两行轨道根数

1 66249U 25245R 26146.57870583 .00025557 00000-0 87152-3 0 9997
2 66249 53.1597 281.9633 0001074 69.5517 290.5599 15.30219736 32962
Epoch: May 26, 2026 • Age: 5 hours

当前状态

高度 475.3 km
速度 7.63 km/s
星下点 14.07°N, 83.68°W
发射日期 Oct 29, 2025
运行时间 0.5 years
类型 internet

技术详情

分类 Payload
质量 575.00 kg
干质量 530.00 kg
总质量 575.00 kg
长度 0.30 m
直径 4.10 m
跨度 29.00 m
形状 Box + pan
制造商 SPXS
平台类型 Starlink V2MO
阶段状态 In Orbit
所有者/国家 SPXS/US

Most Searched